Regional Weather Roundup
Issued by NWS Wilmington, NC

Home | Current Version | Previous Version | Text Only | Print | Product List | Glossary On
Versions: 1 2 3 4 5 6 7 8 9 10 11 12 13 14 15 16 17 18 19 20 21 22 23 24 25 26 27
000
ASUS42 KILM 040713
RWRILM
RWRILM
REGIONAL HOURLY WEATHER ROUNDUP
NATIONAL WEATHER SERVICE WILMINGTON NC
300 AM EDT WED MAY 04 2016

NOTE: "FAIR" INDICATES FEW OR NO CLOUDS BELOW 12,000 FEET WITH NO
SIGNIFICANT WEATHER AND/OR OBSTRUCTIONS TO VISIBILITY.

...............WFO WILMINGTON COUNTY WARNING AREA...............

......COASTAL NC AND SC COUNTIES......

CITY           SKY/WX    TMP DP  RH WIND       PRES   REMARKS
WILMINGTON     CLOUDY    70  67  90 SW7       29.69F
N MYRTLE BEACH CLEAR     68  60  75 SW9       29.70F
MYRTLE BEACH   CLOUDY    70  55  60 SW5       29.73F

......INLAND NC AND SC COUNTIES.......

CITY           SKY/WX    TMP DP  RH WIND       PRES   REMARKS
LUMBERTON      CLOUDY    69  65  86 CALM      29.70F
ELIZABETHTOWN  CLOUDY    70  68  95 W5        29.70F
WHITEVILLE     NOT AVBL
FLORENCE       CLOUDY    70  66  87 SW5       29.71F
DARLINGTON     CLOUDY    70  66  88 SW7       29.71F
KINGSTREE      FAIR      66  61  82 SW3       29.72F
HARTSVILLE     MOCLDY    64  63  94 CALM      29.71F
BENNETTSVILLE  CLOUDY    70  66  88 W5        29.70F
CONWAY         FAIR      66  61  82 SW5       29.71F
GEORGETOWN     FAIR      63  61  94 SW5       29.73F
MARION         FAIR      68  64  88 SW5       29.71F

....................REST OF NORTH CAROLINA......................

.........EASTERN NC.........

CITY           SKY/WX    TMP DP  RH WIND       PRES   REMARKS
CAPE HATTERAS  CLOUDY    69  68  96 W3        29.67F
JACKSONVILLE   CLOUDY    68  67  96 CALM      29.69F
MOREHEAD CITY  LGT RAIN  71  69  93 W13       29.67F
KENANSVILLE    CLOUDY    65  64  97 CALM      29.70F
NEW BERN       MOCLDY    63  60  90 CALM      29.68F
ELIZABETH CITY CLOUDY    64  63  96 CALM      29.66F

.........CENTRAL NC.........

CITY           SKY/WX    TMP DP  RH WIND       PRES   REMARKS
RALEIGH DURHAM PTCLDY    62  60  93 CALM      29.71F
ROCKY MOUNT    CLEAR     62  61  96 CALM      29.69F
ROANOKE RAPIDS NOT AVBL
FAYETTEVILLE   CLOUDY    65  63  93 NE6       29.70S
HOFFMAN        PTCLDY    62  61  96 N5        29.71S

.........WESTERN NC.........

CITY           SKY/WX    TMP DP  RH WIND       PRES   REMARKS
CHARLOTTE      MOCLDY    62  55  78 CALM      29.75S
GREENSBORO     MOCLDY    60  51  72 N5        29.74F
HICKORY        NOT AVBL
BOONE          NOT AVBL
ASHEVILLE      NOT AVBL

.....................REST OF SOUTH CAROLINA.....................

.........EASTERN SC.........

CITY           SKY/WX    TMP DP  RH WIND       PRES   REMARKS
CHARLESTON     CLOUDY    67  64  90 SW8       29.73F
BEAUFORT MCAS  CLOUDY    68  66  93 W6        29.75F
HILTON HEAD    CLOUDY    70  70 100 SW5       29.77F

.........CENTRAL SC.........

CITY           SKY/WX    TMP DP  RH WIND       PRES   REMARKS
COLUMBIA       CLOUDY    68  63  84 SW5       29.72F
ORANGEBURG     CLOUDY    68  66  93 S8        29.74F
SUMTER SHAW    PTCLDY    68  65  92 W6        29.69F

.........WESTERN SC.........

CITY           SKY/WX    TMP DP  RH WIND       PRES   REMARKS
GREENVILLE     NOT AVBL
ROCK HILL      PTCLDY    58  56  93 CALM      29.75S
ANDERSON       CLEAR     58  51  78 W6        29.77F
CLEMSON        NOT AVBL
GREENWOOD      MOCLDY    59  53  80 W3        29.78F


...................COASTAL AND OFFSHORE REPORTS..................

................LOCAL PIERS AND NC RESERVE................


STATION/POSITION TIME  SKY/WX   TEMP    WIND        PRES    VSBY
                                AIR SEA DIR/SP/G
                 (UTC)          (F)     (DEG/KT/KT) (MB)    (MI)
JOHNY MRCER PIER 0600            72 68  230/ 15/ 20 1004.9F
NC RESRV MASNBRO NOT AVBL
OCEAN CREST PIER NOT AVBL
SPRINGMAID  PIER 0600            70 70  210/  6/  8 1006.4F


................COASTAL AND OFFSHORE BUOYS................


STATION/POSITION TIME  SKY/WX   TEMP    WIND        PRES    VSBY
                                AIR SEA DIR/SP/G
                 (UTC)          (F)     (DEG/KT/KT) (MB)    (MI)
DIMNDSHOAL 41025 0650            72 72  250/ 10/ 12 1005.2F
WVE H/P(F/S)=  4/ 7 SWL H/P/D(F/S/D)=  3/180/ 7

CAPE LOOKOUT     0700            71     240/ 14/ 18 1004.2F
ONSLOW BAY 41036 NOT AVBL
ONSLOW BAY 41064 NOT AVBL
ONSLOW BAY 41159 0625               72                N/A
WVE H/P(F/S)=  6/ 7

5SE WRITBC 41038 0608            72 70  250/ 17/ 23 1006.1F
MASNBO INL 41110 0606               70                N/A
WVE H/P(F/S)=  4/ 6

WILM HARBR 41108 0626               69                N/A
WVE H/P(F/S)=  5/ 6

27SE WRITB 41037 0608            72 73  250/ 19/ 27   N/A
FRYING PAN 41013 0600            75 73  230/ 16/ 21 1005.8F
SUNST NRSH 41024 0608            71 70  240/ 14/ 17 1006.0F
CAPRS NRSH 41029 0608            72 71  230/ 10/ 12 1007.0F
EDISTO     41004 0650            73 74  170/  8/  8 1006.8F
WVE H/P(F/S)=  4/ 5 SWL H/P/D(F/S/D)=  3/ 5



..........OFFSHORE BUOYS BEYOND 100 NM OFFSHORE...........
.....IN A TRIANGLE---HAT TO BERMUDA TO BAHAMAS TO HAT.....


STATION/POSITION TIME  SKY/WX   TEMP    WIND        PRES    VSBY
                                AIR SEA DIR/SP/G
                 (UTC)          (F)     (DEG/KT/KT) (MB)    (MI)
150E HAT   41001 NOT AVBL
W BERMUDA  41048 0650            71 70  180/ 16/ 17 1013.6F
WVE H/P(F/S)=  4/ 9 SWL H/P/D(F/S/D)=  2/ 90/ 9

ATLANTIC S 41049 0650            74 76  150/  6/  8 1018.3F
WVE H/P(F/S)=  3/ 9 SWL H/P/D(F/S/D)=  3/ 60/ 9

E BAHAMAS  41046 0650            78 79  120/ 16/ 17 1015.3F
WVE H/P(F/S)=  5/ 9 SWL H/P/D(F/S/D)=  3/ 40/ 9

NE BAHAMAS 41047 0650            77 78  180/ 16/ 17 1014.1F
WVE H/P(F/S)=  4/ 9 SWL H/P/D(F/S/D)=  2/ 80/ 9

120E CANVRL41010 0620            78 78  220/ 16/ 17 1010.5F

END




USA.gov is the U.S. government's official web portal to all federal, state and local government web resources and services.